1501128000.99,17490,17.69,73158.8,0.17,-18.01,-17.63,0,*4B
1501128002.23,17491,17.69,73158.3,0.17,-18.01,-17.69,0,*40
1501128003.48,17492,17.69,73154.5,0.17,-17.97,-17.69,0,*43
1501128004.75,17493,17.69,73154.5,0.17,-17.97,-17.63,0,*48
1501128005.94,17494,17.69,73152.8,0.19,-17.87,-17.49,0,*48
1501128007.17,17495,17.69,73152.8,0.19,-17.97,-17.49,0,*48
1501128008.44,17496,17.69,73150.3,0.21,-17.97,-17.45,0,*4C
1501128009.65,17497,17.69,73154.5,0.19,-17.79,-17.31,0,*45
1501128010.85,17498,17.69,73156.3,0.19,-17.73,-17.35,0,*44
1501128012.07,17499,17.69,73154.0,0.19,-17.79,-17.49,0,*44
1501128013.26,17500,17.69,73156.8,0.19,-17.87,-17.49,0,*44
1501128014.51,17501,17.69,73156.3,0.19,-17.93,-17.59,0,*41
1501128015.71,17502,17.69,73154.3,0.19,-17.87,-17.49,0,*46
1501128016.92,17503,17.69,73154.3,0.19,-17.93,-17.49,0,*42
1501128018.17,17504,17.75,73158.5,0.21,-17.97,-17.49,0,*4A
1501128019.41,17505,17.69,73152.8,0.21,-17.93,-17.49,0,*4F
1501128020.65,17506,17.69,73154.3,0.19,-17.79,-17.45,0,*4F
1501128021.86,17507,17.75,73158.3,0.19,-17.87,-17.35,0,*48
1501128023.1,17508,17.69,73156.3,0.19,-17.79,-17.45,0,*41
1501128024.3,17509,17.69,73154.3,0.19,-17.73,-17.35,0,*4D
1501128025.55,17510,17.69,73154.3,0.19,-17.93,-17.45,0,*4C
1501128026.77,17511,17.69,73156.0,0.19,-17.93,-17.49,0,*41
1501128028.04,17512,17.69,73158.3,0.21,-17.97,-17.59,0,*4C
1501128029.26,17513,17.69,73158.3,0.19,-17.97,-17.49,0,*47
1501128030.49,17514,17.69,73156.3,0.19,-17.87,-17.45,0,*4D
1501128031.74,17515,17.69,73158.0,0.19,-17.97,-17.45,0,*4D
1501128032.96,17516,17.69,73154.5,0.19,-18.07,-17.59,0,*45
1501128034.18,17517,17.75,73156.0,0.21,-18.11,-17.73,0,*40
1501128035.37,17518,17.69,73156.5,0.19,-18.11,-17.73,0,*44
1501128036.56,17519,17.75,73156.0,0.19,-18.21,-17.73,0,*46
1501128037.81,17520,17.69,73158.0,0.21,-18.07,-17.63,0,*42
1501128039.03,17521,17.75,73158.3,0.19,-17.97,-17.49,0,*46
1501128040.22,17522,17.69,73156.5,0.19,-17.87,-17.31,0,*4B
1501128041.41,17523,17.69,73154.5,0.19,-17.73,-17.31,0,*41
1501128042.64,17524,17.75,73158.5,0.19,-17.97,-17.73,0,*4A
1501128043.83,17525,17.75,73156.8,0.19,-18.07,-17.73,0,*4D
1501128045.06,17526,17.75,73156.3,0.19,-17.97,-17.35,0,*4A
1501128046.28,17527,17.75,73156.8,0.19,-17.87,-17.21,0,*4F
1501128047.5,17528,17.69,73152.5,0.19,-17.73,-17.21,0,*4B
1501128048.73,17529,17.75,73158.3,0.19,-17.79,-17.35,0,*45
1501128049.93,17530,17.75,73154.0,0.19,-17.73,-17.35,0,*47
1501128051.15,17531,17.75,73156.3,0.19,-17.79,-17.35,0,*4C
1501128052.35,17532,17.69,73154.0,0.19,-17.87,-17.35,0,*4E
1501128053.6,17533,17.75,73156.3,0.19,-17.79,-17.45,0,*49
1501128054.81,17534,17.75,73152.8,0.19,-17.79,-17.31,0,*4D
1501128056.05,17535,17.75,73156.5,0.19,-17.63,-17.17,0,*43
1501128057.31,17536,17.75,73158.3,0.21,-17.63,-17.21,0,*4E
1501128058.56,17537,17.75,73154.3,0.21,-17.73,-17.21,0,*4E
1501128059.78,17538,17.75,73154.5,0.19,-17.73,-17.07,0,*4E
1501128061.03,17539,17.75,73158.8,0.21,-17.73,-17.07,0,*44
1501128062.28,17540,17.75,73154.8,0.21,-17.73,-17.07,0,*4A
1501128063.55,17541,17.75,73154.0,0.21,-17.79,-17.21,0,*45
1501128064.79,17542,17.75,73158.0,0.21,-17.93,-17.31,0,*43
1501128066.0,17543,17.75,73154.5,0.21,-17.87,-17.31,0,*47
1501128067.24,17544,17.75,73156.8,0.21,-17.79,-17.31,0,*41
1501128068.48,17545,17.75,73158.5,0.21,-17.73,-17.21,0,*4B
1501128069.75,17546,17.75,73156.8,0.21,-17.59,-17.21,0,*40
1501128071.02,17547,17.75,73158.0,0.21,-17.63,-17.21,0,*48
1501128072.26,17548,17.75,73154.8,0.21,-17.59,-17.31,0,*4F
1501128073.49,17549,17.75,73158.5,0.21,-17.63,-17.31,0,*47
1501128074.72,17550,17.75,73152.3,0.21,-17.73,-17.35,0,*4A
1501128075.96,17551,17.75,73158.0,0.21,-17.87,-17.45,0,*47
1501128077.18,17552,17.75,73156.5,0.23,-17.87,-17.45,0,*46
1501128078.41,17553,17.75,73156.3,0.23,-17.83,-17.41,0,*47
1501128079.63,17554,17.75,73158.3,0.23,-17.69,-17.17,0,*47
1501128080.87,17555,17.75,73156.5,0.23,-17.59,-17.17,0,*45
1501128082.09,17556,17.75,73156.0,0.23,-17.69,-17.25,0,*44
1501128083.33,17557,17.75,73154.8,0.23,-17.59,-17.25,0,*46
1501128084.57,17558,17.75,73156.5,0.23,-17.59,-17.17,0,*48
1501128085.79,17559,17.75,73158.3,0.27,-17.49,-17.11,0,*4A
1501128087.01,17560,17.75,73158.0,0.23,-17.73,-17.25,0,*4A
1501128088.2,17561,17.75,73158.8,0.23,-17.69,-17.31,0,*45
1501128089.42,17562,17.75,73158.8,0.23,-17.73,-17.17,0,*49
1501128090.67,17563,17.75,73158.8,0.23,-17.41,-17.11,0,*4F
1501128091.92,17564,17.75,73158.8,0.23,-17.45,-17.11,0,*4C
1501128093.17,17565,17.75,73156.3,0.23,-17.59,-17.17,0,*46
1501128094.39,17566,17.75,73158.8,0.27,-17.49,-17.21,0,*45
1501128095.64,17567,17.75,73160.0,0.23,-17.45,-17.17,0,*49
1501128096.89,17568,17.75,73158.0,0.23,-17.41,-17.11,0,*44
1501128098.13,17569,17.75,73160.3,0.23,-17.55,-17.25,0,*47
1501128099.37,17570,17.75,73158.5,0.27,-17.55,-17.21,0,*4F
1501128100.6,17571,17.75,73158.5,0.27,-17.63,-17.35,0,*4E
1501128101.79,17572,17.75,73162.3,0.23,-17.69,-17.31,0,*47
1501128102.98,17573,17.75,73158.0,0.23,-17.73,-17.31,0,*4D
1501128104.22,17574,17.75,73160.3,0.23,-17.55,-17.17,0,*4A
1501128105.47,17575,17.75,73160.0,0.23,-17.45,-17.03,0,*4F
1501128106.67,17576,17.75,73156.0,0.27,-17.35,-16.89,0,*4C
1501128107.92,17577,17.75,73156.5,0.23,-17.25,-16.69,0,*46
1501128109.14,17578,17.75,73158.8,0.27,-17.25,-16.75,0,*40
1501128110.37,17579,17.75,73158.3,0.23,-17.17,-16.79,0,*48
1501128111.6,17580,17.75,73158.8,0.23,-17.17,-16.83,0,*4B
1501128112.82,17581,17.75,73156.8,0.23,-17.17,-16.93,0,*4B
1501128114.04,17582,17.75,73152.0,0.27,-17.25,-16.89,0,*46
1501128115.29,17583,17.75,73154.3,0.23,-17.45,-17.11,0,*45
1501128116.51,17584,17.75,73152.5,0.23,-17.41,-16.93,0,*4D
1501128117.76,17585,17.75,73158.3,0.23,-17.25,-17.03,0,*46
1501128119.01,17586,17.75,73158.0,0.27,-17.25,-17.11,0,*42
1501128120.25,17587,17.75,73158.0,0.27,-17.07,-16.65,0,*41
1501128121.48,17588,17.75,73158.8,0.23,-17.17,-16.79,0,*46
1501128122.7,17589,17.75,73156.5,0.23,-17.31,-17.03,0,*4F
1501128123.92,17590,17.75,73156.3,0.27,-17.25,-16.79,0,*4A
1501128125.17,17591,17.75,73160.5,0.27,-17.25,-16.65,0,*46
1501128126.41,17592,17.75,73162.0,0.27,-17.07,-16.51,0,*42
1501128127.66,17593,17.75,73160.5,0.23,-17.07,-16.65,0,*40
1501128128.86,17594,17.75,73158.3,0.27,-16.93,-16.59,0,*40
1501128130.05,17595,17.75,73158.8,0.27,-16.97,-16.79,0,*47
1501128131.28,17596,17.75,73158.0,0.27,-17.21,-16.79,0,*48
1501128132.5,17597,17.75,73160.3,0.27,-17.25,-16.89,0,*42
1501128133.72,17598,17.75,73160.3,0.27,-17.21,-16.79,0,*46
1501128134.94,17599,17.75,73156.3,0.27,-17.25,-16.79,0,*43
1501128136.16,17600,17.75,73158.0,0.27,-17.25,-16.79,0,*40
1501128137.39,17601,17.75,73158.8,0.23,-17.25,-16.83,0,*40
1501128138.62,17602,17.75,73162.8,0.27,-17.07,-16.75,0,*4E
1501128139.83,17603,17.75,73162.5,0.27,-17.21,-16.89,0,*48
1501128141.08,17604,17.75,73162.8,0.29,-17.25,-16.89,0,*45
1501128142.3,17605,17.75,73158.5,0.27,-17.21,-16.79,0,*41
1501128143.54,17606,17.75,73164.0,0.29,-17.25,-16.89,0,*47
1501128144.79,17607,17.75,73162.0,0.29,-17.25,-16.97,0,*49
1501128146.06,17608,17.75,73162.3,0.29,-17.25,-17.07,0,*4E
1501128147.32,17609,17.75,73158.8,0.29,-17.35,-17.07,0,*4E
1501128148.54,17610,17.75,73162.3,0.29,-17.35,-16.97,0,*4E
1501128149.8,17611,17.75,73160.0,0.27,-17.41,-17.07,0,*4A
1501128151.05,17612,17.75,73162.3,0.27,-17.63,-17.07,0,*49
1501128152.3,17613,17.75,73162.8,0.27,-17.63,-17.07,0,*48
1501128153.49,17614,17.75,73162.8,0.27,-17.69,-16.97,0,*4D
1501128154.71,17615,17.75,73160.5,0.27,-17.55,-16.97,0,*43
1501128155.9,17616,17.75,73160.0,0.27,-17.49,-16.89,0,*42
1501128157.15,17617,17.75,73160.5,0.27,-17.63,-17.07,0,*4C
1501128158.37,17618,17.75,73164.5,0.23,-17.73,-17.21,0,*42
1501128159.59,17619,17.75,73162.8,0.27,-17.87,-17.41,0,*4A
1501128160.84,17620,17.75,73162.8,0.31,-17.93,-17.45,0,*46
1501128162.05,17621,17.75,73164.8,0.29,-17.83,-17.49,0,*43
1501128163.3,17622,17.75,73162.0,0.29,-17.83,-17.55,0,*4D
1501128164.57,17623,17.75,73158.3,0.29,-18.01,-17.55,0,*49
1501128165.81,17624,17.81,73164.8,0.29,-17.97,-17.49,0,*43
1501128167.09,17625,17.75,73162.8,0.29,-17.97,-17.41,0,*4A
1501128168.33,17626,17.75,73160.8,0.29,-18.01,-17.49,0,*41
1501128169.57,17627,17.75,73158.8,0.29,-18.11,-17.55,0,*4C
1501128170.84,17628,17.75,73160.3,0.29,-18.01,-17.63,0,*47
1501128172.08,17629,17.81,73162.3,0.27,-18.01,-17.63,0,*48
1501128173.33,17630,17.75,73162.8,0.27,-18.01,-17.63,0,*40
1501128174.55,17631,17.75,73160.5,0.27,-18.11,-17.63,0,*40
1501128175.79,17632,17.75,73162.0,0.27,-18.01,-17.63,0,*42
1501128177.01,17633,17.81,73166.0,0.27,-18.11,-17.63,0,*42
1501128178.21,17634,17.81,73164.8,0.23,-18.07,-17.69,0,*4C
1501128179.45,17635,17.81,73164.5,0.27,-18.01,-17.63,0,*45
1501128180.67,17636,17.75,73162.0,0.27,-18.11,-17.63,0,*47
1501128181.87,17637,17.75,73162.3,0.23,-18.17,-17.83,0,*4A
1501128183.07,17638,17.75,73162.3,0.27,-18.11,-17.69,0,*43
1501128184.26,17639,17.75,73162.3,0.27,-18.11,-17.69,0,*42
1501128185.45,17640,17.81,73166.3,0.27,-18.11,-17.69,0,*4C
1501128186.67,17641,17.81,73160.3,0.27,-18.17,-17.79,0,*4A
1501128187.89,17642,17.75,73162.0,0.27,-18.17,-17.79,0,*49
1501128189.09,17643,17.75,73162.3,0.27,-18.17,-17.69,0,*49
1501128190.31,17644,17.75,73162.8,0.27,-18.17,-17.79,0,*4F
1501128191.53,17645,17.75,73160.8,0.27,-18.17,-17.79,0,*4E
1501128192.77,17646,17.81,73162.5,0.23,-18.35,-17.93,0,*4D
1501128193.99,17647,17.75,73160.8,0.27,-18.17,-17.79,0,*4C
1501128195.19,17648,17.81,73160.3,0.23,-18.21,-17.83,0,*47
1501128196.39,17649,17.81,73162.5,0.27,-18.25,-17.87,0,*42
1501128197.59,17650,17.75,73160.3,0.27,-18.25,-17.87,0,*4A
1501128198.84,17651,17.81,73162.5,0.23,-18.31,-17.93,0,*4F
1501128200.04,17652,17.81,73162.5,0.23,-18.21,-17.87,0,*48
1501128201.28,17653,17.81,73164.3,0.23,-18.31,-17.93,0,*4D
1501128202.53,17654,17.81,73162.3,0.23,-18.31,-17.93,0,*4A
1501128203.76,17655,17.81,73162.5,0.27,-18.31,-17.83,0,*4E
1501128205.01,17656,17.75,73160.8,0.23,-18.35,-17.93,0,*4C
1501128206.25,17657,17.81,73160.8,0.23,-18.35,-18.01,0,*49
1501128207.5,17658,17.81,73162.0,0.23,-18.35,-18.01,0,*46
1501128208.73,17659,17.81,73162.8,0.23,-18.31,-17.87,0,*42
1501128209.95,17660,17.81,73162.8,0.21,-18.25,-17.87,0,*4F
1501128211.18,17661,17.81,73162.8,0.21,-18.21,-17.87,0,*4A
1501128212.42,17662,17.81,73162.0,0.21,-18.11,-17.79,0,*4B
1501128213.66,17663,17.81,73164.0,0.21,-18.21,-17.79,0,*49
1501128214.9,17664,17.81,73166.0,0.21,-18.21,-17.79,0,*4E
1501128216.12,17665,17.81,73162.8,0.19,-18.25,-17.93,0,*44
1501128217.36,17666,17.81,73160.5,0.21,-18.25,-17.93,0,*4C
1501128218.58,17667,17.81,73162.0,0.21,-18.41,-18.07,0,*4D
1501128219.83,17668,17.81,73160.3,0.21,-18.49,-17.97,0,*4C
1501128221.03,17669,17.81,73166.3,0.19,-18.41,-18.07,0,*48
1501128222.27,17670,17.81,73162.0,0.21,-18.25,-17.93,0,*4B
1501128223.55,17671,17.81,73166.0,0.21,-18.35,-17.97,0,*4F
1501128224.79,17672,17.81,73164.0,0.19,-18.35,-17.93,0,*43
1501128226.02,17673,17.81,73164.3,0.19,-18.41,-17.97,0,*45
1501128227.22,17674,17.81,73164.8,0.19,-18.49,-18.07,0,*4C
1501128228.42,17675,17.81,73162.8,0.19,-18.41,-18.07,0,*45
1501128229.66,17676,17.81,73162.8,0.21,-18.41,-17.93,0,*4F
1501128230.86,17677,17.81,73160.5,0.19,-18.25,-17.87,0,*42
1501128232.1,17678,17.81,73160.0,0.19,-18.35,-17.93,0,*49
1501128233.35,17679,17.81,73162.5,0.19,-18.35,-17.93,0,*48
1501128234.57,17680,17.81,73160.0,0.21,-18.25,-17.87,0,*41
1501128235.77,17681,17.81,73162.3,0.19,-18.25,-17.87,0,*4B
1501128236.99,17682,17.81,73162.8,0.21,-18.21,-17.87,0,*47
1501128238.24,17683,17.81,73162.8,0.21,-18.35,-17.87,0,*43
1501128239.47,17684,17.81,73160.3,0.19,-18.35,-17.87,0,*4F
1501128240.72,17685,17.81,73166.3,0.21,-18.35,-17.87,0,*45
1501128241.97,17686,17.81,73160.0,0.19,-18.35,-17.97,0,*4C
1501128243.2,17687,17.81,73162.3,0.19,-18.41,-17.97,0,*4E
1501128244.41,17688,17.81,73162.5,0.19,-18.25,-17.93,0,*47
1501128245.61,17689,17.81,73162.5,0.19,-18.25,-17.87,0,*43
1501128246.84,17690,17.81,73164.5,0.19,-18.35,-17.87,0,*4A
1501128248.09,17691,17.81,73164.5,0.17,-18.31,-17.83,0,*45
1501128249.33,17692,17.81,73164.5,0.17,-18.17,-17.93,0,*43
1501128250.55,17693,17.81,73162.5,0.17,-18.17,-17.83,0,*43
1501128251.75,17694,17.81,73160.3,0.19,-18.21,-17.87,0,*4B
1501128252.99,17695,17.81,73166.0,0.21,-18.25,-17.79,0,*44
1501128254.21,17696,17.81,73166.5,0.19,-18.25,-17.79,0,*4C
1501128255.43,17697,17.81,73162.3,0.19,-18.25,-17.79,0,*4D
1501128256.7,17698,17.81,73166.8,0.17,-18.31,-18.01,0,*49
1501128257.94,17699,17.81,73162.3,0.19,-18.35,-17.93,0,*46
1501128259.17,17700,17.81,73160.3,0.19,-18.25,-17.97,0,*42
1501128260.36,17701,17.81,73166.3,0.19,-18.49,-18.07,0,*4F
1501128261.64,17702,17.81,73160.3,0.17,-18.31,-18.01,0,*4B
1501128262.86,17703,17.81,73164.8,0.17,-18.45,-18.11,0,*48
1501128264.08,17704,17.81,73160.0,0.19,-18.25,-17.79,0,*46
1501128265.32,17705,17.81,73160.0,0.19,-18.35,-17.93,0,*42
1501128266.56,17706,17.81,73160.8,0.19,-18.35,-17.93,0,*41
1501128267.83,17707,17.81,73164.3,0.17,-18.31,-17.93,0,*4A
1501128269.07,17708,17.81,73162.3,0.17,-18.25,-17.93,0,*40
1501128270.34,17709,17.81,73162.3,0.17,-18.31,-17.97,0,*40
1501128271.62,17710,17.81,73164.0,0.17,-18.31,-17.97,0,*48
1501128272.89,17711,17.81,73162.3,0.17,-18.31,-17.93,0,*4D
1501128274.11,17712,17.81,73164.5,0.15,-18.41,-17.97,0,*4F
1501128275.34,17713,17.81,73162.0,0.19,-18.25,-17.97,0,*40
1501128276.58,17714,17.81,73160.0,0.17,-18.41,-17.97,0,*4B
1501128277.82,17715,17.81,73162.0,0.17,-18.25,-17.93,0,*4C
1501128279.07,17716,17.81,73164.0,0.19,-18.35,-17.97,0,*44
1501128280.27,17717,17.81,73164.0,0.19,-18.41,-18.07,0,*40
1501128281.51,17718,17.81,73166.3,0.17,-18.45,-18.01,0,*43
1501128282.73,17719,17.81,73164.3,0.17,-18.45,-18.17,0,*45
1501128283.95,17720,17.81,73162.8,0.17,-18.45,-18.11,0,*49
1501128285.19,17721,17.81,73162.8,0.19,-18.35,-17.93,0,*44
1501128286.46,17722,17.81,73162.3,0.17,-18.31,-17.93,0,*4D
1501128287.71,17723,17.81,73164.8,0.17,-18.41,-17.97,0,*4F
1501128288.95,17724,17.81,73162.3,0.15,-18.31,-17.93,0,*49
1501128290.22,17725,17.81,73162.8,0.17,-18.31,-17.93,0,*4A
1501128291.47,17726,17.81,73162.0,0.17,-18.31,-17.83,0,*48
1501128292.71,17727,17.81,73160.8,0.17,-18.25,-17.93,0,*4D
1501128293.95,17728,17.81,73162.0,0.17,-18.25,-17.93,0,*42
1501128295.15,17729,17.81,73164.5,0.15,-18.25,-17.83,0,*40
1501128296.36,17730,17.81,73162.5,0.15,-18.25,-17.93,0,*49
1501128297.61,17731,17.81,73162.5,0.17,-18.25,-17.97,0,*4E
1501128298.88,17732,17.81,73162.3,0.17,-18.31,-18.01,0,*48
1501128300.13,17733,17.81,73162.5,0.17,-18.41,-17.97,0,*4E
1501128301.37,17734,17.81,73162.8,0.17,-18.41,-18.01,0,*49
1501128302.62,17735,17.81,73162.5,0.15,-18.31,-18.01,0,*4D
1501128303.87,17736,17.81,73162.3,0.15,-18.31,-17.93,0,*4A
1501128305.1,17737,17.81,73164.0,0.15,-18.41,-17.97,0,*48
1501128306.32,17738,17.81,73166.3,0.15,-18.45,-18.01,0,*43
1501128307.56,17739,17.81,73164.0,0.17,-18.41,-18.01,0,*44
1501128308.81,17740,17.81,73160.3,0.17,-18.41,-17.97,0,*4A
1501128310.06,17741,17.81,73162.8,0.15,-18.31,-18.01,0,*4E
1501128311.29,17742,17.81,73160.8,0.15,-18.41,-17.97,0,*4A
1501128312.56,17743,17.81,73160.0,0.17,-18.31,-17.97,0,*4E
1501128313.79,17744,17.81,73156.5,0.15,-18.41,-18.01,0,*4C
1501128315.01,17745,17.81,73160.3,0.15,-18.41,-18.01,0,*4D
1501128316.29,17746,17.81,73160.3,0.17,-18.31,-17.97,0,*4B
1501128317.51,17747,17.81,73160.0,0.17,-18.25,-17.83,0,*4A
1501128318.76,17748,17.81,73160.0,0.15,-18.31,-17.97,0,*47
1501128320.04,17749,17.81,73162.8,0.17,-18.31,-17.97,0,*44
1501128321.26,17750,17.88,73166.0,0.15,-18.41,-17.93,0,*4D
1501128322.51,17751,17.88,73168.0,0.15,-18.31,-17.97,0,*4F
1501128323.76,17752,17.81,73160.5,0.15,-18.31,-17.93,0,*48
1501128325.01,17753,17.81,73160.8,0.17,-18.31,-17.83,0,*4A
1501128326.21,17754,17.81,73162.5,0.15,-18.25,-17.83,0,*4A
1501128327.46,17755,17.88,73160.0,0.17,-18.25,-17.97,0,*4C
1501128328.71,17756,17.88,73160.8,0.15,-18.31,-17.97,0,*48
1501128329.95,17757,17.81,73158.8,0.17,-18.41,-18.01,0,*4C
1501128331.18,17758,17.88,73160.5,0.15,-18.41,-18.01,0,*41
1501128332.42,17759,17.81,73160.8,0.19,-18.55,-18.01,0,*49
1501128333.67,17760,17.88,73162.0,0.17,-18.41,-18.01,0,*48
1501128334.91,17761,17.81,73158.3,0.17,-18.41,-17.97,0,*49
1501128336.16,17762,17.81,73160.8,0.17,-18.41,-17.97,0,*4A
1501128337.41,17763,17.88,73164.3,0.17,-18.41,-17.97,0,*4B
1501128338.62,17764,17.88,73164.0,0.17,-18.45,-18.17,0,*4F
1501128339.86,17765,17.88,73164.5,0.17,-18.45,-18.01,0,*49
1501128341.09,17766,17.81,73160.3,0.19,-18.41,-17.97,0,*40
1501128342.34,17767,17.88,73164.5,0.17,-18.41,-17.97,0,*4F
1501128343.57,17768,17.88,73164.3,0.19,-18.41,-17.97,0,*4E
1501128344.79,17769,17.88,73166.0,0.19,-18.35,-17.87,0,*4D
1501128346.04,17770,17.88,73166.3,0.17,-18.41,-17.97,0,*49
1501128347.26,17771,17.88,73164.5,0.17,-18.41,-18.11,0,*49
1501128348.49,17772,17.81,73164.8,0.15,-18.55,-18.11,0,*4D
1501128349.7,17773,17.88,73164.3,0.17,-18.45,-18.17,0,*49
1501128350.93,17774,17.88,73166.8,0.17,-18.55,-18.25,0,*4E
1501128352.15,17775,17.88,73164.8,0.15,-18.55,-18.17,0,*4C
1501128353.37,17776,17.88,73162.5,0.17,-18.45,-18.11,0,*4A
1501128354.59,17777,17.88,73162.3,0.15,-18.55,-18.17,0,*4E
1501128355.8,17778,17.88,73162.5,0.15,-18.59,-18.25,0,*4C
1501128357.04,17779,17.88,73160.5,0.15,-18.55,-18.01,0,*47
1501128358.24,17780,17.88,73164.3,0.15,-18.45,-18.11,0,*41
1501128359.46,17781,17.88,73162.0,0.15,-18.55,-18.17,0,*47
1501128360.71,17782,17.88,73160.5,0.17,-18.55,-18.11,0,*40
1501128361.93,17783,17.88,73162.3,0.15,-18.59,-18.11,0,*4F
1501128363.17,17784,17.88,73160.5,0.17,-18.55,-18.11,0,*46
1501128364.38,17785,17.88,73160.3,0.15,-18.45,-18.11,0,*44
1501128365.62,17786,17.88,73156.5,0.17,-18.41,-18.01,0,*40
1501128366.86,17787,17.88,73158.0,0.17,-18.45,-18.01,0,*45
1501128368.11,17788,17.88,73156.0,0.17,-18.55,-18.11,0,*4A
1501128369.31,17789,17.88,73158.8,0.15,-18.45,-18.11,0,*48
1501128370.51,17790,17.88,73158.5,0.15,-18.41,-18.11,0,*44
1501128371.73,17791,17.88,73158.8,0.19,-18.25,-17.93,0,*4E
1501128372.94,17792,17.88,73160.0,0.19,-18.25,-17.93,0,*4D
1501128374.21,17793,17.88,73158.0,0.17,-18.31,-17.93,0,*47
1501128375.41,17794,17.88,73156.8,0.19,-18.49,-18.07,0,*43
1501128376.64,17795,17.88,73160.5,0.17,-18.55,-18.25,0,*41
1501128377.87,17796,17.88,73160.0,0.17,-18.59,-18.25,0,*4E
1501128379.1,17797,17.88,73156.8,0.17,-18.59,-18.25,0,*4F
1501128380.32,17798,17.88,73156.5,0.15,-18.55,-18.17,0,*4F
1501128381.53,17799,17.88,73162.0,0.15,-18.55,-18.25,0,*4F
1501128382.74,17800,17.88,73162.8,0.15,-18.41,-18.11,0,*42
1501128383.98,17801,17.88,73162.8,0.17,-18.55,-18.11,0,*44
1501128385.23,17802,17.88,73160.0,0.17,-18.55,-18.11,0,*47
1501128386.47,17803,17.88,73156.8,0.17,-18.45,-18.01,0,*46
1501128387.71,17804,17.88,73162.3,0.17,-18.45,-18.01,0,*41
1501128388.95,17805,17.88,73160.0,0.17,-18.55,-18.11,0,*40
1501128390.19,17806,17.88,73162.0,0.17,-18.55,-18.17,0,*45
1501128391.43,17807,17.88,73156.8,0.17,-18.59,-18.17,0,*48
1501128392.64,17808,17.88,73158.0,0.17,-18.69,-18.17,0,*44
1501128393.85,17809,17.88,73158.5,0.17,-18.69,-18.25,0,*44
1501128395.12,17810,17.88,73160.3,0.17,-18.59,-18.31,0,*4A
1501128396.32,17811,17.88,73162.5,0.15,-18.45,-18.11,0,*46
1501128397.54,17812,17.88,73160.0,0.15,-18.59,-18.25,0,*4F
1501128398.75,17813,17.88,73156.3,0.15,-18.59,-18.25,0,*4E
1501128399.97,17814,17.88,73158.5,0.17,-18.69,-18.41,0,*4A
1501128401.21,17815,17.88,73156.0,0.17,-18.73,-18.31,0,*47
1501128402.42,17816,17.88,73160.5,0.15,-18.59,-18.25,0,*4B
1501128403.67,17817,17.88,73158.3,0.17,-18.41,-18.01,0,*47
1501128404.94,17818,17.88,73156.3,0.17,-18.31,-17.97,0,*4F
1501128406.18,17819,17.88,73158.0,0.17,-18.25,-17.93,0,*4F
1501128407.39,17820,17.88,73162.3,0.15,-18.55,-18.17,0,*43
1501128408.63,17821,17.88,73162.8,0.17,-18.55,-18.17,0,*40
1501128409.83,17822,17.88,73162.8,0.15,-18.45,-18.11,0,*46
1501128411.07,17823,17.88,73160.5,0.17,-18.45,-18.01,0,*44
1501128412.29,17824,17.88,73158.8,0.15,-18.55,-18.17,0,*47
1501128413.53,17825,17.88,73162.0,0.17,-18.55,-18.17,0,*44
1501128414.74,17826,17.88,73156.0,0.17,-18.45,-18.17,0,*46
1501128415.97,17827,17.88,73160.3,0.17,-18.59,-18.17,0,*4A
1501128417.19,17828,17.88,73156.0,0.15,-18.59,-18.25,0,*46
1501128418.4,17829,17.88,73158.3,0.17,-18.69,-18.25,0,*46
1501128419.6,17830,17.88,73158.3,0.15,-18.41,-18.11,0,*41
1501128420.82,17831,17.88,73158.8,0.15,-18.45,-18.01,0,*45
1501128422.04,17832,17.88,73158.3,0.15,-18.59,-18.25,0,*4D
1501128423.27,17833,17.88,73158.0,0.17,-18.55,-18.17,0,*43
1501128424.47,17834,17.88,73158.5,0.15,-18.45,-18.11,0,*41
1501128425.67,17835,17.88,73158.3,0.15,-18.45,-18.11,0,*40
1501128426.9,17836,17.94,73160.0,0.15,-18.41,-18.01,0,*46
1501128428.14,17837,17.88,73156.3,0.17,-18.41,-18.01,0,*45
1501128429.38,17838,17.88,73158.5,0.17,-18.55,-18.17,0,*48
1501128430.63,17839,17.88,73156.8,0.15,-18.31,-17.97,0,*4E
1501128431.83,17840,17.88,73162.8,0.15,-18.45,-18.11,0,*42
1501128433.06,17841,17.88,73160.8,0.15,-18.41,-18.01,0,*46
1501128434.28,17842,17.88,73158.8,0.17,-18.45,-18.11,0,*42
1501128435.5,17843,17.88,73158.8,0.17,-18.45,-18.11,0,*43
1501128436.72,17844,17.88,73160.0,0.15,-18.41,-18.01,0,*43
1501128437.93,17845,17.88,73158.0,0.15,-18.45,-18.11,0,*47
1501128439.14,17846,17.88,73156.5,0.15,-18.59,-18.17,0,*4F
1501128440.33,17847,17.94,73160.5,0.15,-18.69,-18.25,0,*4C
1501128441.55,17848,17.88,73156.8,0.17,-18.69,-18.25,0,*41
1501128442.78,17849,17.88,73158.5,0.17,-18.59,-18.25,0,*43
1501128443.99,17850,17.88,73158.8,0.15,-18.59,-18.17,0,*48
1501128445.22,17851,17.88,73156.3,0.17,-18.41,-18.11,0,*44
1501128446.41,17852,17.94,73158.5,0.15,-18.41,-18.17,0,*43
1501128447.62,17853,17.88,73156.3,0.17,-18.45,-18.17,0,*44
1501128448.84,17854,17.94,73158.5,0.15,-18.55,-18.17,0,*40
1501128450.06,17855,17.88,73158.5,0.15,-18.55,-18.17,0,*41
1501128451.3,17856,17.94,73158.5,0.17,-18.55,-18.11,0,*46
1501128452.52,17857,17.88,73156.0,0.15,-18.55,-18.17,0,*43
1501128453.78,17858,17.94,73158.0,0.17,-18.55,-18.01,0,*49
1501128454.98,17859,17.88,73154.5,0.15,-18.45,-18.11,0,*4A
1501128456.19,17860,17.94,73154.8,0.15,-18.59,-18.25,0,*4A
1501128457.42,17861,17.88,73150.8,0.15,-18.55,-18.11,0,*40
1501128458.67,17862,17.94,73154.8,0.15,-18.31,-17.93,0,*44
1501128459.89,17863,17.88,73154.5,0.15,-18.41,-18.01,0,*46
1501128461.11,17864,17.94,73156.0,0.15,-18.45,-18.01,0,*45
1501128462.33,17865,17.88,73154.5,0.17,-18.45,-18.11,0,*47
1501128463.57,17866,17.94,73158.0,0.17,-18.55,-18.17,0,*43
1501128464.77,17867,17.94,73156.8,0.15,-18.45,-18.11,0,*47
1501128466.0,17868,17.94,73154.3,0.15,-18.41,-18.01,0,*4D
1501128467.22,17869,17.94,73154.3,0.15,-18.41,-18.01,0,*4C
1501128468.44,17870,17.94,73152.3,0.15,-18.55,-18.17,0,*46
1501128469.64,17871,17.94,73152.8,0.15,-18.45,-18.11,0,*40
1501128470.88,17872,17.94,73158.3,0.17,-18.55,-18.11,0,*40
1501128472.11,17873,17.94,73152.3,0.15,-18.41,-18.01,0,*47
1501128473.33,17874,17.94,73156.0,0.15,-18.41,-17.97,0,*40
1501128474.56,17875,17.94,73152.8,0.15,-18.41,-18.01,0,*41
1501128475.8,17876,17.94,73154.8,0.17,-18.41,-18.01,0,*40
1501128477.02,17877,17.94,73154.0,0.17,-18.45,-18.11,0,*44
1501128478.25,17878,17.94,73154.3,0.15,-18.45,-17.97,0,*48
1501128479.49,17879,17.94,73154.3,0.17,-18.41,-18.01,0,*4F
1501128480.72,17880,17.94,73156.0,0.15,-18.45,-17.97,0,*4F
1501128481.94,17881,17.94,73152.5,0.15,-18.55,-18.11,0,*4E
1501128483.19,17882,17.94,73152.3,0.17,-18.55,-18.11,0,*4F
1501128484.4,17883,17.94,73154.8,0.15,-18.55,-18.17,0,*4A
1501128485.61,17884,17.94,73154.3,0.15,-18.69,-18.11,0,*44
1501128486.83,17885,17.94,73156.0,0.17,-18.41,-18.11,0,*4D
1501128488.05,17886,17.94,73154.3,0.15,-18.55,-18.11,0,*49
1501128489.27,17887,17.94,73154.5,0.17,-18.45,-18.17,0,*4D
1501128490.48,17888,17.94,73152.8,0.15,-18.55,-18.17,0,*41
1501128491.67,17889,17.94,73156.0,0.15,-18.45,-18.17,0,*41
1501128492.9,17890,17.94,73154.8,0.15,-18.55,-18.11,0,*4E
1501128494.11,17891,17.94,73156.8,0.15,-18.59,-18.17,0,*45
1501128495.36,17892,17.94,73154.5,0.17,-18.59,-18.11,0,*42
1501128496.57,17893,17.94,73152.0,0.15,-18.55,-18.17,0,*4B
1501128497.77,17894,17.94,73156.3,0.15,-18.45,-18.11,0,*4B
1501128499.0,17895,17.94,73154.5,0.17,-18.45,-18.11,0,*48
1501128500.23,17896,17.94,73156.8,0.17,-18.59,-18.17,0,*40